Overview Statistics Trail Chart Weather Telemetry Raw packets
 

This is the latest recevied weather packets stored in our database for station/object KA1BMF-13. If no packets are shown the sender has not sent any weather packets the latest 10 day(s).

<< 21 22 23 24 25 26 27 >>
Time Temp. Humidity Pressure Rain* Wind** Luminosity Snow
1788200719 24.44° C 61% 1019.4 hPa 0 mm - 425 W/m² -
1788200119 24.44° C 60% 1019.5 hPa 0 mm - 320 W/m² -
1788199519 25° C 61% 1019.5 hPa 0 mm - 318 W/m² -
1788198919 25° C 63% 1019.7 hPa 0 mm - 343 W/m² -
1788198320 25.56° C 63% 1019.6 hPa 0 mm - 404 W/m² -
1788197719 25.56° C 63% 1019.5 hPa 0 mm - 647 W/m² -
1788197117 25.56° C 64% 1019.6 hPa 0 mm - 1060 W/m² -
1788196517 25° C 66% 1019.7 hPa 0 mm - 361 W/m² -
1788195920 25° C 61% 1019.7 hPa 0 mm - 636 W/m² -
1788195321 25° C 58% 1019.7 hPa 0 mm - 591 W/m² -
1788194717 25° C 55% 1019.9 hPa 0 mm - 842 W/m² -
1788194117 25° C 56% 1019.8 hPa 0 mm - 863 W/m² -
1788193518 25° C 59% 1019.8 hPa 0 mm - 901 W/m² -
1788192918 25.56° C 58% 1020 hPa 0 mm - 747 W/m² -
1788192318 25° C 63% 1020 hPa 0 mm - 955 W/m² -
1788191718 24.44° C 62% 1020.1 hPa 0 mm - 863 W/m² -
1788191137 25° C 63% 1020.1 hPa 0 mm - 840 W/m² -
1788190518 24.44° C 65% 1020.2 hPa 0 mm - 838 W/m² -
1788189919 25° C 64% 1020.2 hPa 0 mm - 776 W/m² -
1788189319 24.44° C 66% 1020.2 hPa 0 mm - 755 W/m² -
1788188720 24.44° C 65% 1020.2 hPa 0 mm - 706 W/m² -
1788188117 23.89° C 65% 1020.3 hPa 0 mm - 717 W/m² -
1788187517 23.89° C 68% 1020.5 hPa 0 mm - 643 W/m² -
1788186917 22.78° C 73% 1020.4 hPa 0 mm - 620 W/m² -
1788186320 22.78° C 76% 1020.3 hPa 0 mm - 534 W/m² -

* Rain latest hour (hover to see other rain measurements)
** Current wind speed in m/s (hover to see current wind gust speed)